This demonstration page uses our WeatherBlox Daily Observations layout. Learn more.

Left ArrowRight Arrow

34.74481, -87.66753

Hourly Observations for January 3, 2022

Temp ( °F °C ) Dew Point ( °F °C ) Humidity (%) Winds ( mph kmh ) Pressure ( in mb ) Visibility ( mi km ) Precip ( " mm )
12:33 am 00:33 Cloudy with Light Snow 32 0 29 -1.7 88 88 NW 14 22 30.20 1023 3 4 0.00 0.00
12:35 am 00:35 Cloudy with Light Snow 32 0 29 -1.7 88 88 NW 12 19 30.20 1023 3 5 0.00 0.00
12:45 am 00:45 Cloudy with Mist and Fog 32 0 28 -2.2 85 85 NW 14 22 30.21 1023 4 6 0.00 0.00
12:53 am 00:53 Cloudy with Mist and Fog 32 0 28 -2.2 85 85 NW 14 22 30.18 1022 5 8 0.00 0.00
1:53 am 01:53 Cloudy 32 0 28 -2.2 85 85 NNW 15 24 30.21 1023 10 16 0.00 0.00
2:31 am 02:31 Cloudy 32 0 29 -1.7 88 88 NNW 16 26 30.25 1024 10 16 0.00 0.00
2:53 am 02:53 Cloudy 32 0 28 -2.2 85 85 NNW 15 24 30.23 1024 10 16 0.00 0.00
3:49 am 03:49 Cloudy 30 -1 28 -2 93 93 NNW 14 22 30.27 1025 10 16 0.00 0.00
3:53 am 03:53 Cloudy 31 -0.6 28 -2.2 89 89 NW 13 20 30.25 1025 10 16 0.00 0.00
4:53 am 04:53 Cloudy 31 -0.6 26 -3.3 82 82 NW 13 20 30.27 1025 10 16 0.00 0.00
5:53 am 05:53 Cloudy 31 -0.6 27 -2.8 85 85 NNW 10 17 30.32 1027 10 16 0.00 0.00
6:53 am 06:53 Cloudy 31 -0.6 27 -2.8 85 85 NNW 12 19 30.35 1028 10 16 0.00 0.00
7:53 am 07:53 Cloudy 31 -0.6 26 -3.3 82 82 NNW 10 17 30.37 1029 10 16 0.00 0.00
8:53 am 08:53 Cloudy 31 -0.6 27 -2.8 85 85 NNW 6 9 30.42 1030 10 16 0.00 0.00
9:53 am 09:53 Cloudy 32 0 27 -2.8 82 82 N 8 13 30.43 1031 10 16 0.00 0.00
10:46 am 10:46 Cloudy 32 0 26 -3.3 79 79 NNW 8 13 30.45 1031 10 16 0.00 0.00
10:53 am 10:53 Cloudy 32 0 26 -3.3 79 79 N 8 13 30.42 1030 10 16 0.00 0.00
11:53 am 11:53 Cloudy 33 0.6 27 -2.8 78 78 NNW 6 9 30.41 1030 10 16 0.00 0.00
12:14 pm 12:14 Cloudy 33 0.6 26 -3.3 75 75 N 8 13 30.43 1030 10 16 0.00 0.00
12:53 pm 12:53 Cloudy 34 1.1 27 -2.8 76 76 N 7 11 30.40 1029 10 16 0.00 0.00
1:53 pm 13:53 Cloudy 34 1.1 27 -2.8 76 76 N 7 11 30.40 1030 10 16 0.00 0.00
2:53 pm 14:53 Cloudy 34 1.1 26 -3.3 73 73 N 5 7 30.41 1030 10 16 0.00 0.00
3:53 pm 15:53 Cloudy 34 1.1 27 -2.8 76 76 Calm 30.42 1030 10 16 0.00 0.00
4:53 pm 16:53 Cloudy 34 1.1 27 -2.8 76 76 VRB 3 6 30.43 1030 10 16 0.00 0.00
5:53 pm 17:53 Cloudy 34 1.1 27 -2.8 76 76 NW 6 9 30.42 1030 10 16 0.00 0.00
6:53 pm 18:53 Cloudy 34 1.1 27 -2.8 76 76 NW 7 11 30.42 1030 10 16 0.00 0.00
7:53 pm 19:53 Cloudy 34 1.1 27 -2.8 76 76 NNW 7 11 30.43 1030 10 16 0.00 0.00
8:53 pm 20:53 Cloudy 34 1.1 27 -2.8 76 76 Calm 30.42 1030 10 16 0.00 0.00
9:53 pm 21:53 Cloudy 33 0.6 27 -2.8 78 78 E 6 9 30.41 1030 10 16 0.00 0.00
10:53 pm 22:53 Cloudy 33 0.6 26 -3.3 75 75 ENE 5 7 30.40 1030 10 16 0.00 0.00
11:53 pm 23:53 Cloudy 33 0.6 26 -3.3 75 75 ENE 6 9 30.40 1029 10 16 0.00 0.00

Powered by AerisWeather